KK4MOR Weather Reports


Display with metric or nautical units.
time (UTC)temp
F
wind
direction
speed
MPH
gust
MPH
rain 1hr
in
rain 24hr
in
rain mn
in
humidity
%
barometer
mb
20260504024524 54 161 0.0 0.0 0.00 0.00 0.00 68 1015.5
20260504023025 54 161 0.0 0.0 0.00 0.00 0.00 67 1015.3
20260504021522 52 161 0.0 0.0 0.00 0.00 0.00 68 1015.0
20260504020022 52 360 0.0 0.0 0.00 0.00 0.00 71 1015.0
20260504014534 52 163 0.0 0.0 0.00 0.00 0.00 69 1015.0
20260504013021 53 360 0.0 0.0 0.00 0.00 0.00 69 1015.0
20260504011521 54 360 0.0 0.0 0.00 0.00 0.00 66 1014.7
20260504010022 55 360 0.0 0.0 0.00 0.00 0.00 63 1014.8
20260504004519 57 163 0.0 0.0 0.00 0.00 0.00 61 1014.9
20260504003027 58 360 0.0 0.0 0.00 0.00 0.00 57 1014.9
20260504001517 60 162 0.0 0.0 0.00 0.00 0.00 53 1015.1
20260504000018 62 162 0.0 0.0 0.00 0.00 0.00 48 1015.2
20260503234529 63 165 0.0 0.0 0.00 0.00 0.00 46 1014.9
20260503233015 63 146 0.0 1.0 0.00 0.00 0.00 45 1015.0
20260503231513 64 165 0.0 0.0 0.00 0.00 0.00 46 1015.3
20260503230009 64 165 0.0 1.0 0.00 0.00 0.00 42 1015.6
20260503224508 65 207 0.0 1.0 0.00 0.00 0.00 42 1015.8
20260503223007 65 248 0.0 1.0 0.00 0.00 0.00 43 1015.9
20260503221505 66 138 0.0 1.0 0.00 0.00 0.00 41 1015.9
20260503220005 66 197 0.0 1.0 0.00 0.00 0.00 44 1016.0
20260503214505 66 197 0.0 5.0 0.00 0.00 0.00 43 1016.2
20260503213002 66 211 0.0 5.0 0.00 0.00 0.00 45 1016.2
20260503211600 65 196 0.0 0.0 0.00 0.00 0.00 43 1016.4
20260503210109 65 148 0.0 2.0 0.00 0.00 0.00 43 1016.7
20260503204608 65 137 1.0 7.0 0.00 0.00 0.00 41 1016.8
20260503203059 65 196 0.0 1.0 0.00 0.00 0.00 41 1017.1
20260503201552 64 193 0.0 4.0 0.00 0.00 0.00 43 1017.3
20260503200054 64 191 0.0 2.0 0.00 0.00 0.00 41 1017.6
20260503194547 63 165 0.0 1.0 0.00 0.00 0.00 41 1018.0
20260503193051 63 225 0.0 3.0 0.00 0.00 0.00 41 1018.1
20260503191543 63 207 0.0 0.0 0.00 0.00 0.00 37 1018.5
20260503190041 62 183 0.0 0.0 0.00 0.00 0.00 40 1018.7
20260503184551 62 169 0.0 8.0 0.00 0.00 0.00 42 1018.8
20260503183055 62 241 0.0 0.0 0.00 0.00 0.00 44 1018.8
20260503181535 61 157 0.0 1.0 0.00 0.00 0.00 44 1019.0
20260503180041 61 174 0.0 1.0 0.00 0.00 0.00 42 1019.0
20260503174535 61 177 0.0 0.0 0.00 0.00 0.00 46 1019.2
20260503173042 60 205 0.0 1.0 0.00 0.00 0.00 47 1019.4
20260503171527 59 231 0.0 0.0 0.00 0.00 0.00 47 1019.6
20260503081503 41 360 0.0 0.0 0.00 0.00 0.00 96 1018.2
20260503071618 41 360 0.0 0.0 0.00 0.00 0.00 95 1018.2
20260503070109 41 360 0.0 0.0 0.00 0.00 0.00 96 1018.0
20260503054550 42 360 0.0 0.0 0.00 0.00 0.00 95 1017.8
20260503053049 42 360 0.0 0.0 0.00 0.00 0.00 95 1017.9
20260503051550 42 360 0.0 0.0 0.00 0.00 0.00 94 1017.8
20260503050046 42 360 0.0 0.0 0.00 0.00 0.00 94 1017.7
20260503044544 42 360 0.0 0.0 0.00 0.00 0.00 93 1017.5
20260503043042 43 360 0.0 0.0 0.00 0.00 0.00 93 1017.4
20260503041539 43 360 0.0 0.0 0.00 0.00 0.00 93 1017.3
20260503040045 44 360 0.0 0.0 0.00 0.00 0.00 93 1017.3
20260503034546 44 360 0.0 0.0 0.00 0.00 0.00 92 1017.2
20260503033041 44 360 0.0 0.0 0.00 0.00 0.00 92 1017.2
20260503031539 44 360 0.0 0.0 0.00 0.00 0.00 91 1017.2
20260503030040 45 360 0.0 0.0 0.00 0.00 0.00 90 1017.1